www.pogodaiklimat.ru

Погода и климат >> Архив погоды >> Австралия >> Cooktown Airport


ПОГОДА в Cooktown Airport

  • Прогноз погоды в Cooktown Airport
  • Монитор погоды в Cooktown Airport
  • Климат города

АРХИВ ПОГОДЫ в Cooktown Airport

Время (UTC), дата Ветер
(напр.,м/с)
 
Видим.   Явления Облачность Т
(С)
Тd
(С)
f
(%)
Тe
(С)
Тes
(С)
Комфортность P
(гПа)
Po
(гПа)
Тmin
(С)
Tmax
(С)
R
(мм)
R24
(мм)
S
(см)
02 8.12 ЮВ 7 н/о 6/6 1000 м
[]
+31.9 +22.0 56 +41 +43 опасность
перегрева
1007.9 1007.3 +23.4
03 8.12 В 9 н/о н/о +31.5 +20.1 51 +38 +38 очень
душно
1007.3 1006.7
05 8.12 ЮВ 9 н/о 1/1 1500 м
[]
+31.1 +20.4 53 +38 +39 очень
душно
1005.6 1005.0
06 8.12 ЮВ 9 н/о н/о +29.8 +20.9 59 +37 +37 очень
душно
1005.5 1004.9
08 8.12 ЮВ 5 н/о 4/0
[]
+28.0 +21.3 67 +35 +36 очень
душно
1005.6 1005.0
09 8.12 В 2 н/о н/о +27.3 +21.8 72 +35 +35 очень
душно
1006.4 1005.8
11 8.12 ЮВ 3 н/о 6/0
[]
+27.0 +22.0 74 +35 +35 очень
душно
1006.9 1006.3
12 8.12 ЮВ 2 н/о н/о +26.8 +22.2 76 +35 +35 очень
душно
1006.9 1006.3
14 8.12 З 3 н/о 10/0
[]
+25.6 +22.1 81 +33 +33 очень
душно
1006.9 1006.3 +33.2
15 8.12 штиль 0 н/о н/о +25.5 +22.2 82 +33 +33 очень
душно
1006.3 1005.7
17 8.12 штиль 0 н/о 10/10 1000 м
[]
+24.7 +22.6 88 +32 +32 очень
душно
1005.2 1004.6
18 8.12 З 2 н/о н/о +24.5 +22.4 88 +32 +32 очень
душно
1004.7 1004.1
20 8.12 З 1 н/о 10/0
[]
+24.5 +21.4 83 +31 +31 очень
душно
1005.6 1005.0
21 8.12 З 3 н/о н/о +25.7 +21.1 76 +32 +32 очень
душно
1005.8 1005.2
23 8.12 З 5 н/о 9/9 1500 м
[]
+30.7 +20.0 53 +37 +38 очень
душно
1005.5 1004.9
00 9.12 З 5 н/о н/о +31.1 +21.0 55 +39 +39 очень
душно
1005.3 1004.7
02 9.12 З 4 н/о {туман} 10/10 1500 м
[]
+32.8 +19.7 46 +39 +39 очень
душно
1003.9 1003.3 +24.4
03 9.12 Ю 4 н/о н/о +32.7 +20.2 48 +39 +39 очень
душно
1003.3 1002.7
05 9.12 ЮЗ 5 н/о {туман} 6/0
[]
+31.9 +19.5 48 +38 +43 очень
душно
1002.4 1001.8
06 9.12 ЮЗ 4 н/о н/о +31.2 +19.9 51 +37 +37 очень
душно
1002.1 1001.5
08 9.12 Ю 4 н/о 9/0
[]
+29.5 +20.4 58 +36 +37 очень
душно
1003.0 1002.4
09 9.12 ЮЗ 3 н/о н/о +27.3 +21.1 69 +34 +34 очень
душно
1003.4 1002.8
11 9.12 З 3 н/о 10/0 2000 м
[]
+26.0 +22.1 79 +34 +34 очень
душно
1003.7 1003.1
12 9.12 ЮЗ 1 н/о н/о +25.8 +22.3 81 +34 +34 очень
душно
1004.0 1003.4
14 9.12 З 3 н/о в посл. час дождь {туман} 10/0 2000 м
[]
+25.0 +22.5 86 +33 +33 очень
душно
1003.2 1002.6 +33.8
15 9.12 СЗ 3 н/о н/о +25.3 +22.2 83 +33 +33 очень
душно
1001.7 1001.1
17 9.12 СЗ 5 н/о {туман} 10/0 2000 м
[]
+26.1 +21.7 77 +34 +34 очень
душно
1000.0 999.4
18 9.12 СЗ 5 н/о н/о +26.7 +21.5 73 +34 +34 очень
душно
1000.1 999.5
20 9.12 СЗ 5 н/о 10/10 600 м
[]
+26.6 +21.6 74 +34 +34 очень
душно
1001.4 1000.8
21 9.12 СЗ 4 н/о н/о +27.2 +21.9 73 +35 +35 очень
душно
1002.6 1002.0
23 9.12 З 2 н/о 10/10 600 м
[]
+28.5 +22.5 70 +37 +37 очень
душно
1004.5 1003.9
00 10.12 В 3 н/о н/о +29.4 +21.1 61 +37 +37 очень
душно
1004.8 1004.2
02 10.12 В 7 н/о 8/8 300 м
[]
+30.0 +24.2 71 +42 +43 опасность
перегрева
1004.4 1003.8 +24.9
03 10.12 В 7 н/о н/о +29.5 +22.7 67 +39 +39 очень
душно
1004.4 1003.8
05 10.12 В 6 н/о в посл. час дождь {туман} 10/10 300 м
[]
+28.3 +24.5 80 +40 +40 очень
душно
1003.4 1002.8
06 10.12 В 5 н/о н/о +26.7 +25.3 92 +39 +39 очень
душно
1003.5 1002.9
08 10.12 СВ 3 н/о туман местами 10/10 300 м
[]
+26.6 +25.2 92 +38 +38 очень
душно
1004.7 1004.1
09 10.12 штиль 0 н/о н/о +26.3 +24.7 91 +37 +37 очень
душно
1005.5 1004.9
11 10.12 З 2 7000 м туман местами 8/8 300 м
[]
+24.7 +23.7 94 +34 +34 очень
душно
1007.5 1006.9
12 10.12 Ю 2 н/о н/о +24.4 +23.4 94 +33 +33 очень
душно
1008.5 1007.9
14 10.12 штиль 0 н/о {туман} 1/0
[]
+24.0 +23.0 94 +32 +32 очень
душно
1007.9 1007.3 +32.5
15 10.12 штиль 0 н/о н/о +23.8 +23.0 95 +32 +32 очень
душно
1006.8 1006.2
17 10.12 штиль 0 н/о {туман} 10/10 300 м
[]
+23.5 +22.7 95 +31 +31 очень
душно
1006.5 1005.9
18 10.12 штиль 0 н/о н/о +23.4 +22.6 95 +32 +32 очень
душно
1006.9 1006.3
20 10.12 штиль 0 н/о 10/10 300 м
[]
+23.6 +22.8 95 +31 +31 очень
душно
1007.9 1007.3
21 10.12 В 1 н/о н/о +24.2 +23.3 95 +32 +32 очень
душно
1009.0 1008.4
23 10.12 СВ 2 н/о {туман} 8/8 1000 м
[]
+26.5 +24.3 88 +37 +39 очень
душно
1009.7 1009.1
00 11.12 штиль 0 н/о н/о +27.7 +24.7 84 +39 +39 очень
душно
1009.5 1008.9
02 11.12 С 3 4500 м туман 10/10 300 м
[]
+25.8 +24.0 90 +36 +36 очень
душно
1008.9 1008.3 +23.3
03 11.12 ЮЗ 2 н/о н/о +26.0 +25.0 94 +37 +37 очень
душно
1008.3 1007.7
05 11.12 ЮВ 4 7000 м туман местами 10/10 100 м
[]
+25.3 +23.7 91 +34 +34 очень
душно
1007.5 1006.9
06 11.12 Ю 2 н/о н/о +25.4 +23.6 90 +35 +35 очень
душно
1007.4 1006.8
08 11.12 С 2 н/о 10/0
[]
+25.9 +24.3 91 +36 +36 очень
душно
1008.1 1007.5
09 11.12 З 2 н/о н/о +25.3 +24.1 93 +35 +35 очень
душно
1008.7 1008.1
11 11.12 СЗ 2 н/о н/о +24.8 +23.8 94 +34 +34 очень
душно
1009.3 1008.7
12 11.12 штиль 0 н/о н/о +24.7 +23.7 94 +34 +34 очень
душно
1009.6 1009.0
14 11.12 штиль 0 н/о 10/10 600 м
[]
+25.0 +24.1 95 +34 +34 очень
душно
1008.9 1008.3 +29.4
15 11.12 штиль 0 н/о н/о +24.9 +24.0 95 +34 +34 очень
душно
1008.2 1007.6
17 11.12 штиль 0 н/о 10/10 300 м
[]
+25.1 +24.2 95 +35 +35 очень
душно
1007.6 1007.0
18 11.12 штиль 0 н/о н/о +25.3 +24.4 95 +35 +35 очень
душно
1007.1 1006.5
20 11.12 штиль 0 н/о 10/10 300 м
[]
+25.4 +24.5 95 +36 +36 очень
душно
1008.1 1007.5
21 11.12 штиль 0 н/о н/о +26.0 +25.0 94 +37 +37 очень
душно
1008.7 1008.1
23 11.12 В 5 н/о {туман} 10/10 300 м
[]
+29.0 +24.8 78 +41 +41 опасность
перегрева
1010.2 1009.6
00 12.12 В 5 н/о н/о +29.6 +24.7 75 +42 +42 опасность
перегрева
1009.9 1009.3
02 12.12 В 5 н/о н/о +31.0 +24.4 68 +43 +43 опасность
перегрева
1008.7 1008.1 +24.8
03 12.12 В 6 н/о н/о +30.4 +24.8 72 +43 +43 опасность
перегрева
1008.2 1007.6
05 12.12 В 5 н/о н/о +30.3 +24.4 71 +43 +43 опасность
перегрева
1007.0 1006.4
06 12.12 В 5 н/о н/о +30.2 +24.6 72 +43 +43 опасность
перегрева
1006.8 1006.2
08 12.12 В 3 н/о н/о +28.5 +24.5 79 +40 +40 очень
душно
1007.3 1006.7
09 12.12 ЮВ 2 н/о н/о +27.7 +24.7 84 +39 +39 очень
душно
1008.1 1007.5
11 12.12 штиль 0 н/о н/о +26.4 +24.6 90 +37 +37 очень
душно
1008.5 1007.9
12 12.12 штиль 0 н/о н/о +26.2 +24.8 92 +37 +37 очень
душно
1008.8 1008.2
14 12.12 штиль 0 н/о н/о +25.6 +24.2 92 +35 +35 очень
душно
1007.9 1007.3 +31.8
15 12.12 штиль 0 н/о н/о +25.5 +24.3 93 +35 +35 очень
душно
1007.1 1006.5
17 12.12 штиль 0 н/о 9/9 600 м
[]
+25.3 +24.3 94 +35 +35 очень
душно
1006.8 1006.2
18 12.12 штиль 0 н/о н/о +25.0 +23.8 93 +34 +34 очень
душно
1007.2 1006.6
20 12.12 штиль 0 н/о н/о +24.7 +23.7 94 +34 +34 очень
душно
1007.9 1007.3
21 12.12 СЗ 2 н/о н/о +25.8 +24.4 92 +36 +36 очень
душно
1008.6 1008.0
23 12.12 С 3 н/о 1/1 300 м
[]
+30.3 +24.4 71 +43 +51 опасность
перегрева
1008.8 1008.2
00 13.12 С 3 н/о н/о +31.4 +23.5 63 +42 +42 опасность
перегрева
1008.5 1007.9
02 13.12 В 6 н/о 6/6 1000 м
[]
+32.2 +25.3 67 +46 +50 опасность
перегрева
1007.4 1006.8 +24.6
03 13.12 СВ 4 н/о н/о +32.2 +25.0 66 +46 +46 опасность
перегрева
1006.7 1006.1
05 13.12 В 3 н/о 10/10 1000 м
[]
+29.3 +25.5 80 +43 +43 опасность
перегрева
1004.6 1004.0
06 13.12 С 3 н/о н/о +28.5 +25.7 85 +42 +42 опасность
перегрева
1003.7 1003.1
08 13.12 С 3 н/о {туман} 5/5 300 м
[]
+29.8 +25.5 78 +44 +44 опасность
перегрева
1004.7 1004.1
09 13.12 СВ 2 н/о н/о +28.7 +25.5 83 +42 +42 опасность
перегрева
1005.2 1004.6
11 13.12 СЗ 2 н/о {туман} н/о +28.2 +24.8 82 +40 +40 очень
душно
1006.4 1005.8
12 13.12 штиль 0 н/о н/о +26.9 +24.9 89 +39 +39 очень
душно
1006.5 1005.9
14 13.12 Ю 1 н/о 5/0
[]
+26.4 +25.0 92 +38 +38 очень
душно
1006.8 1006.2 +33.8
15 13.12 штиль 0 н/о н/о +26.5 +25.1 92 +38 +38 очень
душно
1005.8 1005.2
17 13.12 штиль 0 н/о 1/0
[]
+26.3 +25.1 93 +38 +38 очень
душно
1004.8 1004.2
18 13.12 штиль 0 н/о н/о +26.1 +25.1 94 +37 +37 очень
душно
1004.9 1004.3
20 13.12 СВ 3 1000 м туман 10/10 600 м
[]
+23.5 +22.5 94 +31 +31 очень
душно
1007.2 1006.6
21 13.12 В 2 н/о н/о +23.6 +22.8 95 +31 +31 очень
душно
1007.6 1007.0
23 13.12 С 3 н/о {туман} 10/10 100 м
[]
+24.0 +23.0 94 +32 +32 очень
душно
1008.6 1008.0
00 14.12 В 3 н/о н/о +24.2 +22.8 92 +32 +32 очень
душно
1008.3 1007.7
02 14.12 В 4 н/о в посл. час дождь {туман} 8/8 300 м
[]
+28.4 +23.1 73 +38 +41 очень
душно
1007.0 1006.4 +23.4
03 14.12 В 4 н/о н/о +29.1 +22.8 69 +39 +39 очень
душно
1005.6 1005.0
05 14.12 В 4 н/о {туман} 6/0
[]
+28.3 +22.8 72 +38 +45 очень
душно
1004.0 1003.4
06 14.12 С 3 н/о н/о +29.4 +22.9 68 +39 +39 очень
душно
1004.0 1003.4
08 14.12 С 2 н/о 10/0 2000 м
[]
+27.9 +24.1 80 +39 +39 очень
душно
1005.4 1004.8
09 14.12 С 1 н/о н/о +27.0 +23.9 83 +37 +37 очень
душно
1005.8 1005.2
11 14.12 СЗ 2 н/о 9/9 1500 м
[]
+26.1 +24.5 91 +37 +37 очень
душно
1005.7 1005.1
12 14.12 штиль 0 н/о н/о +25.9 +24.3 91 +36 +36 очень
душно
1005.9 1005.3
14 14.12 штиль 0 н/о 6/0
[]
+25.3 +23.9 92 +35 +35 очень
душно
1005.4 1004.8 +29.7
15 14.12 штиль 0 н/о н/о +25.4 +24.2 93 +35 +35 очень
душно
1004.7 1004.1
17 14.12 штиль 0 н/о 10/10 300 м
[]
+25.4 +24.2 93 +35 +35 очень
душно
1004.5 1003.9
18 14.12 штиль 0 н/о н/о +25.2 +24.2 94 +35 +35 очень
душно
1003.8 1003.2
20 14.12 штиль 0 н/о {туман} 10/10 300 м
[]
+25.2 +24.2 94 +35 +35 очень
душно
1004.9 1004.3
21 14.12 штиль 0 н/о н/о +25.7 +24.7 94 +36 +36 очень
душно
1005.3 1004.7
23 14.12 С 3 н/о {туман} 5/0
[]
+28.3 +24.7 81 +40 +47 очень
душно
1005.4 1004.8
00 15.12 С 5 н/о н/о +29.4 +24.7 76 +42 +42 опасность
перегрева
1005.2 1004.6

 

Местоположение метеостанции Cooktown Airport (Квинсленд, Австралия): широта -15.45 долгота 145.18 высота над уровнем моря 6 м.

В архиве по умолчанию представлена погода в Cooktown Airport за последнюю неделю. Архивные данные за месяц целиком и за предыдущие месяцы, начиная с января 2011 года, Вы можете получить, выбрав интересующий диапазон дат из раскрывающегося списка и нажав кнопку "Ввод!".


*Определитесь, кто Вы:
робот инопланетянин человек

Внимание! Время в таблицах - всемирное. Для получения местного времени необходимо прибавить поправку, которая в Cooktown Airport равна 10 ч.

Смотрите также архив погоды в соседних городах и на ближайших метеорологических станциях:

Погода в Cape Flattery (Квинсленд, Австралия) (55 км)
Погода в Low Islandes Lighthouse (Квинсленд, Австралия) (112 км)
Погода в Palmerville (Квинсленд, Австралия) (134 км)
Погода в Cairns Airport (Квинсленд, Австралия) (170 км)
Погода в Arlington Reef (Квинсленд, Австралия) (173 км)
Погода в Mareeba Airport Aws (Квинсленд, Австралия) (182 км)
Погода в Bougainville Reef (Квинсленд, Австралия) (207 км)
Погода в South Johnstone Exp Stn (Квинсленд, Австралия) (255 км)
Погода в Coen Airport (Квинсленд, Австралия) (290 км)
Погода в Holmes Reef (Квинсленд, Австралия) (308 км)

Пояснения к столбцам:

Ветер - указаны скорость ветра в м/с - средняя за 10 мин, порывы в срок и между сроками (в фигурных скобках) и направление, откуда дует ветер: С - северный, СВ - северо-восточный, В - восточный, ЮВ - юго-восточный, Ю - южный, ЮЗ - юго-западный, З - западный, СЗ - северо-западный.
Видимость - горизонтальная дальность видимости в метрах или километрах. При видимости от 1 до 10 км при отсутствии осадков обычно наблюдается дымка, при ухудшении видимости до 1 км и менее - туман. В сухую погоду видимость может ухудшаться дымом, пылью или мглою.
Явления - указаны атмосферные явления, наблюдавшиеся в срок или в последний час перед сроком; фигурными скобками обозначены явления, наблюдавшиеся между сроками (за 1-3 часа до срока); квадратными скобками обозначены град или гололедные отложения с указанием их диаметра в мм.
Облачность - указаны через наклонную черту общая и нижняя облачность в баллах и высота нижней границы облаков в метрах; квадратными скобками обозначены формы облаков: Ci - перистые, Cs - перисто-слоистые, Cc - перисто-кучевые, Ac - высококучевые, As - высокослоистые, Sc - слоисто-кучевые, Ns - слоисто-дождевые, Cu - кучевые, Cb - кучево-дождевые. Подробнее классификацию облаков см. в Атласе облаков (PDF).
T - Температура воздуха - температура, измеренная на высоте 2 м над землей.
Td - Температура точки росы - температура, при понижении до которой содержащийся в воздухе водяной пар достигнет насыщения.
f - Относительная влажность воздуха - влажноcть воздуха, измеренная на высоте 2 м над землей.
Te - Эффективная температура - температура, которую ощущает одетый по сезону человек в тени. Характеристика душности погоды. При расчете учитывается влияние влажности воздуха и скорости ветра на теплоощущения человека.
Tes - Эффективная температура на солнце - температура, которую ощущает человек, с поправкой на солнечный нагрев. Характеристика знойности погоды. Зависит от высоты солнца над горизонтом, облачности и скорости ветра. Ночью, в пасмурную погоду, а также при ветре 12 м/с и более поправка равна нулю.
P - Атмосферное давление - приведенное к уровню моря атмосферное давление.
Po - Атмосферное давление - измеренное на уровне метеостанции атмосферное давление.
Tmin - Минимальная температура - минимум температуры воздуха на высоте 2 м над землей.
Tmax - Максимальная температура - максимум температуры воздуха на высоте 2 м над землей.
R - Количество осадков - Количество выпавших осадков за период времени, мм. При наведении курсора мыши на число - период времени, за который выпало указанное количество осадков.
R24 - Количество осадков - Количество выпавших осадков за 24 часа, мм.
S - Снежный покров - Высота снежного покрова, см. При наведении курсора мыши на число - состояние снежного покрова и степень покрытия местности в баллах.